This is the latest recevied weather packets stored in our database for station/object K1BES. If no packets are shown the sender has not sent any weather packets the latest 10 day(s).
| Time | Temp. | Humidity | Pressure | Rain* | Wind** | Luminosity | Snow |
|---|---|---|---|---|---|---|---|
| 1787688144 | 33.89° C | 63% | 1017.6 hPa | 0 mm | - | 775 W/m² | - |
| 1787687841 | 33.89° C | 63% | 1017.8 hPa | 0 mm | - | 743 W/m² | - |
| 1787687541 | 34.44° C | 62% | 1017.9 hPa | 0 mm | - | 764 W/m² | - |
| 1787687236 | 33.89° C | 63% | 1017.9 hPa | 0 mm | - | 782 W/m² | - |
| 1787686932 | 33.89° C | 62% | 1018 hPa | 0 mm | - | 807 W/m² | - |
| 1787686628 | 34.44° C | 63% | 1018.1 hPa | 0 mm | - | 813 W/m² | - |
| 1787686323 | 34.44° C | 62% | 1017.9 hPa | 0 mm | - | 830 W/m² | - |
| 1787686019 | 34.44° C | 62% | 1018 hPa | 0 mm | - | 796 W/m² | - |
| 1787685714 | 34.44° C | 62% | 1018.1 hPa | 0 mm | - | 814 W/m² | - |
| 1787685413 | 34.44° C | 61% | 1018.1 hPa | 0 mm | - | 880 W/m² | - |
| 1787685113 | 34.44° C | 62% | 1018.4 hPa | 0 mm | - | 889 W/m² | - |
| 1787684810 | 33.89° C | 61% | 1018.3 hPa | 0 mm | - | 896 W/m² | - |
| 1787684508 | 34.44° C | 62% | 1018.3 hPa | 0 mm | - | 906 W/m² | - |
| 1787684203 | 33.89° C | 63% | 1018.5 hPa | 0 mm | - | 914 W/m² | - |
| 1787683899 | 34.44° C | 62% | 1018.4 hPa | 0 mm | - | 913 W/m² | - |
| 1787683593 | 34.44° C | 62% | 1018.3 hPa | 0 mm | - | 810 W/m² | - |
| 1787683288 | 34.44° C | 62% | 1018.4 hPa | 0 mm | - | 891 W/m² | - |
| 1787682986 | 34.44° C | 62% | 1018.5 hPa | 0 mm | - | 951 W/m² | - |
| 1787682681 | 34.44° C | 60% | 1018.5 hPa | 0 mm | - | 962 W/m² | - |
| 1787682377 | 34.44° C | 62% | 1018.6 hPa | 0 mm | - | 972 W/m² | - |
| 1787682073 | 33.89° C | 62% | 1018.6 hPa | 0 mm | - | 974 W/m² | - |
| 1787681768 | 33.89° C | 61% | 1018.8 hPa | 0 mm | - | 979 W/m² | - |
| 1787681462 | 33.89° C | 63% | 1018.8 hPa | 0 mm | - | 988 W/m² | - |
| 1787681156 | 33.89° C | 61% | 1018.7 hPa | 0 mm | - | 996 W/m² | - |
| 1787680852 | 34.44° C | 61% | 1019 hPa | 0 mm | - | 1003 W/m² | - |
* Rain latest hour (hover to see other rain measurements)
** Current wind speed in m/s (hover to see current wind gust speed)